SCP
0 -0 -0 -0 0 0 0 0 0 0 0 0 0 0 0 0 0 0 0 0 0 0 0 0 0 0 0 0 0 0 0 0 0 0 0 0 0 0 0 0 0 0 0
0 0 0 0 0 0 0 0 0 0 0 0 0 0 0 0 0 0 0 0 0 0 0 0 0 0 0 0 0 0 0 0 0 0 0 0 0 0 0 0 0 0 0
0 0 0 0 0 0 0 0 0 0 0 0 0 0 0 0 0 0 0 0 0 0 0 0 0 0 0 0 0 0 0 0 0 0 0 0 0 0 0 0 0 0 0
0 0 0 0 0 0 0 0 0 0 0 0 0 0 0 0 0 0 0 0 0 0 0 0 0 0 0 0 0 0 0 0 0 0 0 0 0 0 0 0 0 0 0
0 0 0 0 0 0 0 0 0 0 0 0 0 0 0 0 0 0 0 0 0 0 0 0 0 0 0 0 0 0 0 0 0 0 0 0 0 0 0 0 0 0 0
0 0 0 0 0 0 0 0 0 0 0 0 0 0 0 0 0 0 0 0 0 0 0 0 0 0 0 0 0 0 0 0 0 0 0 0 0 0 0 0 0 0 0
0 0 0 0 0 0 0 0 0 0 0 0 0 0 0 0 0 0 0 0 0 0 0 0 0 0 0 0 0 0 0 0 0 0 0 0 0 0 0 0 0 0 0
0 0 0 0 0 0 0 0 0 0 0 0 0 0 0 0 0 0 0 0 0 0 0 0 0 0 0 0 0 0 0 0 0 0 0 0 0 0 0 0 0 0 0
0 0 0 0 0 0 0 0 0 0 0 0 0 0 0 0 0 0 0 0 0 0 0 0 0 0 0 0 0 0 0 0 0 0 0 0 0 0 0 0 0 0 0
-0 0 0 0 0 0 0 0 0 0 0 0 0 0 0 0 0 0 0 0 0 0 0 0 0 0 0 0 0 0 0 0 0 0 0 0 0 0 0 0 0 0 0
-0 0 0 0 0 0 0 0 0 0 0 0 0 0 0 0 0 0 0 0 0 0 0 0 0 0 0 0 0 0 0 0 0 0 0 0 0 0 0 0 0 0 0
0 0 0 0 0 0 0 0 0 0 0 0 0 0 0 0 0 0 0 0 0 0 0 0 0 0 0 0 0 0 0 0 0 0 0 0 0 0 0 0 0 0 0
0 0 0 0 0 0 0 0 0 0 0 0 0 0 0 0 0 0 0 0 0 0 0 0 0 0 0 0 0 0 0 0 0 0 0 0 0 0 0 0 0 0 0
0 0 0 0 0 0 0 0 0 0 0 0 0 0 0 0 0 0 0 0 0 0 0 0 0 0 0 0 0 0 0 0 0 0 0 0 0 0 0 0 0 0 0
0 0 0 0 -0 0 0 0 0 0 0 0 0 0 0 0 0 0 0 0 0 0 0 0 0 0 0 0 0 0 0 0 0 0 0 0 0 0 0 0 0 0 0
0 0 0 0 0 0 0 0 0 0 0 0 0 0 0 0 0 0 0 0 0 0 0 0 0 0 0 0 0 0 0 0 0 0 0 0 0 0 0 0 0 0 0
0 0 0 0 0 0 0 0 0 0 0 0 0 0 0 0 0 0 0 0 0 0 0 0 0 0 0 0 0 0 0 0 0 0 0 0 0 0 0 0 0 0 0
0 0 0 0 0 0 0 0 0 0 0 0 0 0 0 0 0 0 0 0 0 0 0 0 0 0 0 0 0 0 0 0 0 0 0 0 0 0 0 0 0 0 0
0 0 0 0 0 0 0 0 0 0 0 0 0 0 0 0 0 0 0 0 0 0 0 0 0 0 0 0 0 0 0 0 0 0 0 0 0 0 0 0 0 0 0
0 0 0 0 0 0 0 0 0 0 0 0 0 0 0 0 0 0 0 0 0 0 0 0 0 0 0 0 0 0 0 0 0 0 0 0 0 0 0 0 0 0 0
0 0 0 0 0 0 0 0 0 0 0 0 0 0 0 0 0 0 0 0 0 0 0 0 0 0 0 0 0 0 0 0 0 0 0 0 0 0 0 0 0 0 0
0 0 0 0 0 0 0 0 0 0 0 0 0 0 0 0 0 0 0 0 0 0 0 0 0 0 0 0 0 0 0 0 0 0 0 0 0 0 0 0 0 0 0
0 0 0 0 0 0 0 0 0 0 0 0 0 0 0 0 0 0 0 0 0 0 0 0 0 0 0 0 0 0 0 0 0 0 0 0 0 0 0 0 0 0 0
0 0 0 0 0 0 0 0 0 0 0 0 0 0 0 0 0 0 0 0 0 0 0 0 0 0 0 0 0 0 0 0 0 0 0 0 0 0 0 0 0 0 0
0 0 0 0 0 0 0 0 0 0 0 0 0 0 0 0 0 0 0 0 0 0 0 0 0 0 0 0 0 0 0 0 0 0 0 0 0 0 0 0 0 0 0
0 0 0 0 0 0 0 0 0 0 0 0 0 0 0 0 0 0 0 0 0 0 0 0 0 0 0 0 0 0 0 0 0 0 0 0 0 0 0 0 0 0 0
Wind_Speed_500mb
5 2 6 10 17 24 31 37 43 48 52 56 57 60 62 64 66 72 83 87 89 93 86 91 97 84 91 98 101 93 90 85 77 58 54 58 58 48 73 64 56 46 38
15 17 19 25 30 34 39 43 48 49 49 52 56 58 61 61 62 64 63 74 85 88 89 85 90 90 88 89 89 86 86 87 79 74 58 49 43 54 64 65 54 45 37
32 33 35 41 45 46 47 50 55 55 54 55 56 58 58 59 60 61 65 74 79 82 82 89 77 87 90 90 86 83 79 80 77 64 44 46 48 53 64 60 51 41 37
35 42 44 53 56 55 59 66 70 66 62 60 57 57 59 61 64 64 64 64 70 76 79 80 80 82 80 79 80 76 71 75 68 54 54 49 54 60 61 53 47 45 42
39 43 49 53 56 62 67 68 70 73 69 63 60 61 62 66 66 65 64 65 65 70 72 73 75 76 75 69 66 69 74 75 68 60 50 53 62 57 59 55 54 45 53
43 49 55 62 65 67 67 66 68 68 67 64 65 64 65 65 63 63 63 63 64 67 69 72 71 70 62 57 59 61 68 69 64 58 62 61 63 61 55 51 46 56 48
49 51 54 58 61 61 63 62 62 62 62 64 64 65 65 61 60 61 62 63 65 65 64 64 63 60 56 54 54 53 54 53 47 57 59 61 48 40 42 47 49 46 41
52 54 55 58 60 60 61 62 61 62 63 64 65 64 62 58 55 56 58 61 64 61 61 59 56 55 56 57 57 67 69 64 57 59 50 33 26 25 28 25 26 28 31
51 52 52 51 53 54 56 56 57 60 61 62 62 62 63 58 54 54 59 60 63 62 59 57 55 53 53 56 64 66 64 65 64 50 39 26 19 21 27 31 31 29 34
49 50 50 53 55 54 54 55 56 58 58 58 60 60 59 54 53 56 60 62 63 62 62 57 54 50 53 66 73 71 68 72 58 43 29 21 24 28 30 29 29 33 33
59 56 53 53 55 55 53 53 52 52 54 56 58 58 55 52 54 57 60 60 59 59 61 60 56 48 55 70 70 64 65 56 52 33 27 27 28 31 34 31 30 32 31
65 65 61 55 53 53 53 52 51 53 54 55 55 53 50 53 55 59 56 57 52 55 57 58 53 52 54 61 62 63 55 54 41 36 33 29 31 35 36 33 32 31 31
59 59 59 59 57 52 51 50 51 50 51 53 50 49 46 52 56 54 51 52 49 45 46 44 45 54 58 61 66 60 54 45 42 38 31 26 28 29 32 36 35 34 35
58 55 55 53 54 56 57 52 50 50 49 48 43 45 43 48 50 47 45 48 44 32 27 31 39 53 58 63 63 59 54 41 30 31 28 26 28 32 36 38 39 38 39
61 57 56 56 54 51 49 48 49 44 39 38 36 36 38 42 44 39 41 50 46 32 29 30 38 57 65 67 65 57 44 34 31 30 31 31 32 35 38 42 44 45 47
60 57 54 52 50 48 47 43 40 38 35 33 29 29 27 27 26 30 40 38 32 27 32 40 51 58 65 71 66 48 41 42 39 34 34 37 39 41 43 47 49 50 48
55 53 50 48 43 39 34 34 30 22 19 16 17 18 19 21 23 28 38 33 32 31 34 41 50 57 62 64 63 60 52 50 46 36 42 41 43 47 50 52 53 53 51
51 50 46 38 31 28 25 23 23 18 23 20 15 12 11 13 15 20 31 32 34 35 42 43 52 53 55 56 54 55 50 48 45 46 49 50 50 53 56 56 55 54 53
48 46 39 28 23 18 15 14 16 17 16 19 21 19 19 15 14 18 34 39 34 35 41 37 34 36 38 43 47 49 45 47 55 54 55 55 56 56 56 57 57 56 54
43 38 31 22 20 18 13 9 5 6 10 15 18 19 20 14 16 23 34 37 37 38 38 39 35 32 29 27 28 32 38 44 48 52 54 55 56 56 58 58 58 56 52
34 29 26 24 21 13 9 9 12 14 17 21 22 24 25 22 21 21 25 33 40 39 39 42 35 34 37 38 39 40 43 45 48 49 49 51 52 55 55 56 55 52 51
21 26 26 24 20 17 18 18 18 21 23 24 25 23 23 27 27 25 25 25 28 30 33 37 37 38 39 41 44 47 50 49 48 47 47 47 49 51 52 55 53 52 53
18 22 25 27 24 22 20 20 23 24 26 27 27 23 16 19 22 22 22 25 29 31 33 35 38 39 38 39 40 41 41 41 42 45 48 49 51 52 53 53 51 53 54
14 17 17 18 18 18 20 22 24 26 25 24 23 20 17 17 20 24 26 27 29 31 32 34 36 38 39 40 42 43 43 44 46 47 49 50 50 49 50 52 52 52 50
12 14 14 13 12 14 13 13 15 17 17 17 17 18 19 20 23 25 26 27 30 33 35 38 40 41 41 42 43 44 46 48 47 47 49 49 50 50 49 50 50 49 48
10 10 10 10 11 13 13 14 16 16 15 15 16 17 19 21 24 26 27 29 32 36 38 41 42 43 43 45 47 49 49 50 49 48 50 51 50 49 48 48 48 48 46
Wind_Direction_500mb
139 222 292 287 276 277 279 278 279 278 278 275 270 266 263 260 257 255 250 247 249 252 255 262 261 260 264 261 263 259 254 245 238 239 237 232 231 228 224 218 220 224 229
281 277 290 291 287 288 291 285 277 278 279 277 274 269 265 261 258 256 249 245 248 249 253 258 257 257 261 262 262 259 252 244 236 244 236 231 223 227 218 214 216 221 227
282 278 282 286 285 287 289 292 290 281 279 277 273 272 269 265 262 260 252 249 250 253 252 256 258 258 257 258 257 254 247 240 242 235 219 226 218 221 206 208 212 219 233
288 288 287 293 291 292 293 288 286 286 280 276 274 274 271 267 264 260 257 254 252 253 254 253 257 257 259 258 257 251 244 234 222 209 214 217 225 206 199 202 209 224 232
285 284 286 289 288 287 285 282 282 284 282 278 273 272 270 265 262 259 255 255 256 255 256 257 259 259 258 257 254 247 234 227 216 211 201 211 194 191 198 206 213 226 227
293 288 287 289 291 289 285 281 278 278 279 277 275 274 271 266 262 259 255 256 257 258 258 259 259 256 253 247 242 237 237 227 209 193 196 187 200 205 209 217 224 224 239
310 308 305 301 298 295 291 286 282 278 275 273 273 273 272 268 260 255 255 257 259 259 259 258 255 252 247 243 237 229 214 196 196 191 198 206 203 208 217 223 226 238 241
316 310 305 302 301 299 293 289 285 280 276 274 272 270 270 267 262 258 258 260 261 258 257 256 253 250 245 236 226 207 192 183 191 198 208 203 207 223 231 233 230 232 242
317 316 312 307 303 298 294 290 284 278 274 273 272 269 267 263 257 255 258 260 262 260 256 251 247 242 234 220 204 191 184 178 188 198 197 199 216 222 215 208 215 226 242
317 317 317 315 308 302 294 287 282 278 275 269 267 266 264 261 255 254 255 257 257 254 249 243 237 231 223 204 199 195 183 187 195 201 199 200 218 221 218 215 219 231 243
317 315 313 312 308 302 298 292 285 279 273 268 266 265 261 254 250 252 254 255 256 252 247 240 230 217 209 207 205 192 189 200 202 191 192 203 214 220 224 224 230 240 244
318 318 316 311 307 303 298 291 283 277 273 270 268 266 261 254 249 249 249 253 250 247 244 238 226 206 205 207 192 192 208 202 196 195 199 207 221 224 225 233 239 240 253
320 318 315 314 311 306 300 295 288 282 275 271 268 265 259 256 252 247 239 237 241 249 245 240 229 209 200 203 194 207 211 203 202 202 209 227 235 233 231 237 238 249 259
316 317 317 316 315 313 306 298 290 282 276 269 263 260 256 254 252 246 233 219 237 250 240 231 223 202 210 207 205 215 211 206 214 222 227 232 233 236 239 240 245 259 265
311 313 313 311 308 305 298 294 289 283 271 267 263 255 251 253 253 246 227 217 223 235 220 213 205 200 195 197 208 206 209 217 221 232 238 243 251 247 242 244 252 257 263
301 304 307 307 307 303 299 293 283 275 262 261 255 250 242 236 229 223 212 216 223 226 205 199 205 205 207 210 210 213 231 239 240 239 255 255 257 251 249 249 254 260 265
297 298 301 302 303 300 297 291 284 279 260 257 259 252 240 230 222 209 202 206 207 199 199 195 201 201 208 214 225 229 233 245 245 253 259 260 257 253 252 253 257 260 263
298 296 295 295 293 290 287 282 276 275 269 264 257 255 253 246 235 212 185 193 188 207 213 206 211 218 227 232 231 233 243 245 248 261 254 259 255 255 254 256 259 262 263
296 290 287 279 274 274 265 261 263 254 253 270 273 259 253 246 218 208 188 197 207 206 221 225 225 227 234 236 236 239 239 240 252 253 255 257 256 257 257 259 259 258 260
288 285 271 256 256 243 222 230 263 295 300 293 280 269 261 259 223 208 204 206 214 221 227 233 239 241 252 250 249 246 245 248 251 254 256 255 255 256 258 258 256 258 261
284 263 249 241 235 236 250 269 276 268 270 275 271 258 246 239 233 230 223 223 223 226 230 239 241 242 247 250 253 256 256 258 260 258 255 253 254 256 258 257 259 260 257
265 241 238 231 228 230 239 246 246 256 264 269 268 262 245 226 230 223 223 225 230 235 233 238 244 247 250 253 255 256 259 259 257 256 254 254 254 255 256 257 259 258 257
249 230 228 229 226 233 240 246 246 247 254 259 263 262 243 228 233 236 234 230 229 232 236 239 242 246 250 252 254 256 257 258 255 254 255 255 256 257 259 261 260 257 255
246 236 229 232 236 244 247 247 249 251 250 253 254 257 254 247 241 238 241 243 246 249 253 255 257 259 261 263 264 264 264 262 262 261 260 261 261 261 259 260 259 259 257
245 242 239 237 234 239 238 242 248 251 249 250 253 252 252 252 253 254 257 262 265 266 267 268 267 268 269 270 270 269 269 269 268 266 265 265 263 262 260 258 257 255 254
249 247 242 241 238 236 235 234 236 242 247 252 257 261 264 265 266 268 270 272 274 274 273 273 274 275 276 276 275 274 273 272 270 267 265 263 261 261 260 260 257 256 253
Wind_Speed_850mb
5 2 6 10 17 24 31 37 43 48 52 56 57 60 62 64 66 72 83 87 89 93 86 91 97 84 91 98 101 93 90 85 77 58 54 58 58 48 73 64 56 46 38
15 17 19 25 30 34 39 43 48 49 49 52 56 58 61 61 62 64 63 74 85 88 89 85 90 90 88 89 89 86 86 87 79 74 58 49 43 54 64 65 54 45 37
32 33 35 41 45 46 47 50 55 55 54 55 56 58 58 59 60 61 65 74 79 82 82 89 77 87 90 90 86 83 79 80 77 64 44 46 48 53 64 60 51 41 37
35 42 44 53 56 55 59 66 70 66 62 60 57 57 59 61 64 64 64 64 70 76 79 80 80 82 80 79 80 76 71 75 68 54 54 49 54 60 61 53 47 45 42
39 43 49 53 56 62 67 68 70 73 69 63 60 61 62 66 66 65 64 65 65 70 72 73 75 76 75 69 66 69 74 75 68 60 50 53 62 57 59 55 54 45 53
43 49 55 62 65 67 67 66 68 68 67 64 65 64 65 65 63 63 63 63 64 67 69 72 71 70 62 57 59 61 68 69 64 58 62 61 63 61 55 51 46 56 48
49 51 54 58 61 61 63 62 62 62 62 64 64 65 65 61 60 61 62 63 65 65 64 64 63 60 56 54 54 53 54 53 47 57 59 61 48 40 42 47 49 46 41
52 54 55 58 60 60 61 62 61 62 63 64 65 64 62 58 55 56 58 61 64 61 61 59 56 55 56 57 57 67 69 64 57 59 50 33 26 25 28 25 26 28 31
51 52 52 51 53 54 56 56 57 60 61 62 62 62 63 58 54 54 59 60 63 62 59 57 55 53 53 56 64 66 64 65 64 50 39 26 19 21 27 31 31 29 34
49 50 50 53 55 54 54 55 56 58 58 58 60 60 59 54 53 56 60 62 63 62 62 57 54 50 53 66 73 71 68 72 58 43 29 21 24 28 30 29 29 33 33
59 56 53 53 55 55 53 53 52 52 54 56 58 58 55 52 54 57 60 60 59 59 61 60 56 48 55 70 70 64 65 56 52 33 27 27 28 31 34 31 30 32 31
65 65 61 55 53 53 53 52 51 53 54 55 55 53 50 53 55 59 56 57 52 55 57 58 53 52 54 61 62 63 55 54 41 36 33 29 31 35 36 33 32 31 31
59 59 59 59 57 52 51 50 51 50 51 53 50 49 46 52 56 54 51 52 49 45 46 44 45 54 58 61 66 60 54 45 42 38 31 26 28 29 32 36 35 34 35
58 55 55 53 54 56 57 52 50 50 49 48 43 45 43 48 50 47 45 48 44 32 27 31 39 53 58 63 63 59 54 41 30 31 28 26 28 32 36 38 39 38 39
61 57 56 56 54 51 49 48 49 44 39 38 36 36 38 42 44 39 41 50 46 32 29 30 38 57 65 67 65 57 44 34 31 30 31 31 32 35 38 42 44 45 47
60 57 54 52 50 48 47 43 40 38 35 33 29 29 27 27 26 30 40 38 32 27 32 40 51 58 65 71 66 48 41 42 39 34 34 37 39 41 43 47 49 50 48
55 53 50 48 43 39 34 34 30 22 19 16 17 18 19 21 23 28 38 33 32 31 34 41 50 57 62 64 63 60 52 50 46 36 42 41 43 47 50 52 53 53 51
51 50 46 38 31 28 25 23 23 18 23 20 15 12 11 13 15 20 31 32 34 35 42 43 52 53 55 56 54 55 50 48 45 46 49 50 50 53 56 56 55 54 53
48 46 39 28 23 18 15 14 16 17 16 19 21 19 19 15 14 18 34 39 34 35 41 37 34 36 38 43 47 49 45 47 55 54 55 55 56 56 56 57 57 56 54
43 38 31 22 20 18 13 9 5 6 10 15 18 19 20 14 16 23 34 37 37 38 38 39 35 32 29 27 28 32 38 44 48 52 54 55 56 56 58 58 58 56 52
34 29 26 24 21 13 9 9 12 14 17 21 22 24 25 22 21 21 25 33 40 39 39 42 35 34 37 38 39 40 43 45 48 49 49 51 52 55 55 56 55 52 51
21 26 26 24 20 17 18 18 18 21 23 24 25 23 23 27 27 25 25 25 28 30 33 37 37 38 39 41 44 47 50 49 48 47 47 47 49 51 52 55 53 52 53
18 22 25 27 24 22 20 20 23 24 26 27 27 23 16 19 22 22 22 25 29 31 33 35 38 39 38 39 40 41 41 41 42 45 48 49 51 52 53 53 51 53 54
14 17 17 18 18 18 20 22 24 26 25 24 23 20 17 17 20 24 26 27 29 31 32 34 36 38 39 40 42 43 43 44 46 47 49 50 50 49 50 52 52 52 50
12 14 14 13 12 14 13 13 15 17 17 17 17 18 19 20 23 25 26 27 30 33 35 38 40 41 41 42 43 44 46 48 47 47 49 49 50 50 49 50 50 49 48
10 10 10 10 11 13 13 14 16 16 15 15 16 17 19 21 24 26 27 29 32 36 38 41 42 43 43 45 47 49 49 50 49 48 50 51 50 49 48 48 48 48 46
Wind_Direction_850mb
139 222 292 287 276 277 279 278 279 278 278 275 270 266 263 260 257 255 250 247 249 252 255 262 261 260 264 261 263 259 254 245 238 239 237 232 231 228 224 218 220 224 229
281 277 290 291 287 288 291 285 277 278 279 277 274 269 265 261 258 256 249 245 248 249 253 258 257 257 261 262 262 259 252 244 236 244 236 231 223 227 218 214 216 221 227
282 278 282 286 285 287 289 292 290 281 279 277 273 272 269 265 262 260 252 249 250 253 252 256 258 258 257 258 257 254 247 240 242 235 219 226 218 221 206 208 212 219 233
288 288 287 293 291 292 293 288 286 286 280 276 274 274 271 267 264 260 257 254 252 253 254 253 257 257 259 258 257 251 244 234 222 209 214 217 225 206 199 202 209 224 232
285 284 286 289 288 287 285 282 282 284 282 278 273 272 270 265 262 259 255 255 256 255 256 257 259 259 258 257 254 247 234 227 216 211 201 211 194 191 198 206 213 226 227
293 288 287 289 291 289 285 281 278 278 279 277 275 274 271 266 262 259 255 256 257 258 258 259 259 256 253 247 242 237 237 227 209 193 196 187 200 205 209 217 224 224 239
310 308 305 301 298 295 291 286 282 278 275 273 273 273 272 268 260 255 255 257 259 259 259 258 255 252 247 243 237 229 214 196 196 191 198 206 203 208 217 223 226 238 241
316 310 305 302 301 299 293 289 285 280 276 274 272 270 270 267 262 258 258 260 261 258 257 256 253 250 245 236 226 207 192 183 191 198 208 203 207 223 231 233 230 232 242
317 316 312 307 303 298 294 290 284 278 274 273 272 269 267 263 257 255 258 260 262 260 256 251 247 242 234 220 204 191 184 178 188 198 197 199 216 222 215 208 215 226 242
317 317 317 315 308 302 294 287 282 278 275 269 267 266 264 261 255 254 255 257 257 254 249 243 237 231 223 204 199 195 183 187 195 201 199 200 218 221 218 215 219 231 243
317 315 313 312 308 302 298 292 285 279 273 268 266 265 261 254 250 252 254 255 256 252 247 240 230 217 209 207 205 192 189 200 202 191 192 203 214 220 224 224 230 240 244
318 318 316 311 307 303 298 291 283 277 273 270 268 266 261 254 249 249 249 253 250 247 244 238 226 206 205 207 192 192 208 202 196 195 199 207 221 224 225 233 239 240 253
320 318 315 314 311 306 300 295 288 282 275 271 268 265 259 256 252 247 239 237 241 249 245 240 229 209 200 203 194 207 211 203 202 202 209 227 235 233 231 237 238 249 259
316 317 317 316 315 313 306 298 290 282 276 269 263 260 256 254 252 246 233 219 237 250 240 231 223 202 210 207 205 215 211 206 214 222 227 232 233 236 239 240 245 259 265
311 313 313 311 308 305 298 294 289 283 271 267 263 255 251 253 253 246 227 217 223 235 220 213 205 200 195 197 208 206 209 217 221 232 238 243 251 247 242 244 252 257 263
301 304 307 307 307 303 299 293 283 275 262 261 255 250 242 236 229 223 212 216 223 226 205 199 205 205 207 210 210 213 231 239 240 239 255 255 257 251 249 249 254 260 265
297 298 301 302 303 300 297 291 284 279 260 257 259 252 240 230 222 209 202 206 207 199 199 195 201 201 208 214 225 229 233 245 245 253 259 260 257 253 252 253 257 260 263
298 296 295 295 293 290 287 282 276 275 269 264 257 255 253 246 235 212 185 193 188 207 213 206 211 218 227 232 231 233 243 245 248 261 254 259 255 255 254 256 259 262 263
296 290 287 279 274 274 265 261 263 254 253 270 273 259 253 246 218 208 188 197 207 206 221 225 225 227 234 236 236 239 239 240 252 253 255 257 256 257 257 259 259 258 260
288 285 271 256 256 243 222 230 263 295 300 293 280 269 261 259 223 208 204 206 214 221 227 233 239 241 252 250 249 246 245 248 251 254 256 255 255 256 258 258 256 258 261
284 263 249 241 235 236 250 269 276 268 270 275 271 258 246 239 233 230 223 223 223 226 230 239 241 242 247 250 253 256 256 258 260 258 255 253 254 256 258 257 259 260 257
265 241 238 231 228 230 239 246 246 256 264 269 268 262 245 226 230 223 223 225 230 235 233 238 244 247 250 253 255 256 259 259 257 256 254 254 254 255 256 257 259 258 257
249 230 228 229 226 233 240 246 246 247 254 259 263 262 243 228 233 236 234 230 229 232 236 239 242 246 250 252 254 256 257 258 255 254 255 255 256 257 259 261 260 257 255
246 236 229 232 236 244 247 247 249 251 250 253 254 257 254 247 241 238 241 243 246 249 253 255 257 259 261 263 264 264 264 262 262 261 260 261 261 261 259 260 259 259 257
245 242 239 237 234 239 238 242 248 251 249 250 253 252 252 252 253 254 257 262 265 266 267 268 267 268 269 270 270 269 269 269 268 266 265 265 263 262 260 258 257 255 254
249 247 242 241 238 236 235 234 236 242 247 252 257 261 264 265 266 268 270 272 274 274 273 273 274 275 276 276 275 274 273 272 270 267 265 263 261 261 260 260 257 256 253